Location: ?astrovice
(49.6513°N, 14.9287°E)
Time: 02:23:23
(UTC+00:00)

Iridium 4 Rocket - Pass Details

Date: 09 April 2020
Orbit: 586 x 904 km, 86.9° (Epoch: 03 June)

Event Time Altitude Azimuth Distance (km) Brightness Sun altitude
Rises 19:51:25 0° 357° (N) 2,863 7.1 -19.1°
Reaches altitude 10° 19:53:38 10° 357° (N) 1,937 6.2 -19.4°
Maximum altitude 19:57:51 87° 86° (E) 595 2.8 -19.9°
Enters shadow 19:59:07 44° 174° (S) 813 3.3 -20.0°
